Location: Banff
(51.1667°N, 115.5667°W)
Time: 06:40:56
(UTC+00:00)

S-56A Canister/Altair - Pass Details

Date: 04 December 2020
Orbit: 633 x 2499 km, 38.9° (Epoch: 21 January)

Event Time Altitude Azimuth Distance (km) Brightness Sun altitude
Rises 00:51:04 0° 216° (SW) 6,088 13.2 -11.0°
Reaches altitude 10° 00:56:00 10° 207° (SSW) 4,934 12.4 -11.7°
Maximum altitude 01:06:37 28° 156° (SSE) 3,156 10.6 -13.3°
Enters shadow 01:14:33 11° 104° (ESE) 3,733 10.5 -14.5°
Drops below altitude 10° 01:14:53 10° 102° (ESE) 3,797 - -14.5°
Sets 01:18:05 0° 91° (E) 4,510 - -15.0°
